Year,Month,Day,Hour,Minute,Value (Times are PST for windspeed in km/hr)
2010,04,03,00,00,14.80
2010,04,03,00,01,15.60
2010,04,03,00,02,21.10
2010,04,03,00,03,20.70
2010,04,03,00,04,23.30
2010,04,03,00,05,26.20
2010,04,03,00,06,25.00
2010,04,03,00,07,16.90
2010,04,03,00,08,13.10
2010,04,03,00,09,14.30
2010,04,03,00,10,19.90
2010,04,03,00,11,17.30
2010,04,03,00,12,20.30
2010,04,03,00,13,14.20
2010,04,03,00,14,25.90
2010,04,03,00,15,13.80
2010,04,03,00,16,20.20
2010,04,03,00,17,16.30
2010,04,03,00,18,17.20
2010,04,03,00,19,21.20
2010,04,03,00,20,20.70
2010,04,03,00,21,21.70
2010,04,03,00,22,14.40
2010,04,03,00,23,21.30
2010,04,03,00,24,17.90
2010,04,03,00,25,23.50
2010,04,03,00,26,22.20
2010,04,03,00,27,28.00
2010,04,03,00,28,27.90
2010,04,03,00,29,24.40
2010,04,03,00,30,17.10
2010,04,03,00,31,27.70
2010,04,03,00,32,23.70
2010,04,03,00,33,28.20
2010,04,03,00,34,26.90
2010,04,03,00,35,18.30
2010,04,03,00,36,24.10
2010,04,03,00,37,20.80
2010,04,03,00,38,24.40
2010,04,03,00,39,23.00
2010,04,03,00,40,17.30
2010,04,03,00,41,33.90
2010,04,03,00,42,16.00
2010,04,03,00,43,22.80
2010,04,03,00,44,21.40
2010,04,03,00,45,25.50
2010,04,03,00,46,25.20
2010,04,03,00,47,31.10
2010,04,03,00,48,21.70
2010,04,03,00,49,27.80
2010,04,03,00,50,26.60
2010,04,03,00,51,20.70
2010,04,03,00,52,22.20
2010,04,03,00,53,26.00
2010,04,03,00,54,23.20
2010,04,03,00,55,15.70
2010,04,03,00,56,21.30
2010,04,03,00,57,21.30
2010,04,03,00,58,24.90
2010,04,03,00,59,23.60
2010,04,03,01,00,20.20
2010,04,03,01,01,20.30
2010,04,03,01,02,27.40
2010,04,03,01,03,20.30
2010,04,03,01,04,12.80
2010,04,03,01,05,19.00
2010,04,03,01,06,17.00
2010,04,03,01,07,23.80
2010,04,03,01,08,25.60
2010,04,03,01,09,19.40
2010,04,03,01,10,16.40
2010,04,03,01,11,19.70
2010,04,03,01,12,11.60
2010,04,03,01,13,16.00
2010,04,03,01,14,18.20
2010,04,03,01,15,13.30
2010,04,03,01,16,15.20
2010,04,03,01,17,21.30
2010,04,03,01,18,24.30
2010,04,03,01,19,25.40
2010,04,03,01,20,19.40
2010,04,03,01,21,23.80
2010,04,03,01,22,24.80
2010,04,03,01,23,27.30
2010,04,03,01,24,20.10
2010,04,03,01,25,17.70
2010,04,03,01,26,15.40
2010,04,03,01,27,15.20
2010,04,03,01,28,17.20
2010,04,03,01,29,16.70
2010,04,03,01,30,20.20
2010,04,03,01,31,18.70
2010,04,03,01,32,12.30
2010,04,03,01,33,15.90
2010,04,03,01,34,14.00
2010,04,03,01,35,17.50
2010,04,03,01,36,16.20
2010,04,03,01,37,15.20
2010,04,03,01,38,27.60
2010,04,03,01,39,16.40
2010,04,03,01,40,14.50
2010,04,03,01,41,11.90
2010,04,03,01,42,17.30
2010,04,03,01,43,20.50
2010,04,03,01,44,14.60
2010,04,03,01,45,15.00
2010,04,03,01,46,18.20
2010,04,03,01,47,10.80
2010,04,03,01,48,12.70
2010,04,03,01,49,17.90
2010,04,03,01,50,16.30
2010,04,03,01,51,14.00
2010,04,03,01,52,12.30
2010,04,03,01,53,9.80
2010,04,03,01,54,11.20
2010,04,03,01,55,12.00
2010,04,03,01,56,8.00
2010,04,03,01,57,7.50
2010,04,03,01,58,6.90
2010,04,03,01,59,10.90
2010,04,03,02,00,11.20
2010,04,03,02,01,15.50
2010,04,03,02,02,17.70
2010,04,03,02,03,18.20
2010,04,03,02,04,14.30
2010,04,03,02,05,16.50
2010,04,03,02,06,17.80
2010,04,03,02,07,15.00
2010,04,03,02,08,18.90
2010,04,03,02,09,18.50
2010,04,03,02,10,11.70
2010,04,03,02,11,10.80
2010,04,03,02,12,16.30
2010,04,03,02,13,14.20
2010,04,03,02,14,25.20
2010,04,03,02,15,18.80
2010,04,03,02,16,19.50
2010,04,03,02,17,33.70
2010,04,03,02,18,28.90
2010,04,03,02,19,27.00
2010,04,03,02,20,24.30
2010,04,03,02,21,31.10
2010,04,03,02,22,28.60
2010,04,03,02,23,17.50
2010,04,03,02,24,25.40
2010,04,03,02,25,21.00
2010,04,03,02,26,24.50
2010,04,03,02,27,22.00
2010,04,03,02,28,17.80
2010,04,03,02,29,20.40
2010,04,03,02,30,15.70
2010,04,03,02,31,22.30
2010,04,03,02,32,24.40
2010,04,03,02,33,19.30
2010,04,03,02,34,21.70
2010,04,03,02,35,20.50
2010,04,03,02,36,15.50
2010,04,03,02,37,22.40
2010,04,03,02,38,21.10
2010,04,03,02,39,14.60
2010,04,03,02,40,15.20
2010,04,03,02,41,20.70
2010,04,03,02,42,17.50
2010,04,03,02,43,22.00
2010,04,03,02,44,16.60
2010,04,03,02,45,21.50
2010,04,03,02,46,19.10
2010,04,03,02,47,30.60
2010,04,03,02,48,19.50
2010,04,03,02,49,16.00
2010,04,03,02,50,15.70
2010,04,03,02,51,22.10
2010,04,03,02,52,25.30
2010,04,03,02,53,19.20
2010,04,03,02,54,25.70
2010,04,03,02,55,12.20
2010,04,03,02,56,10.30
2010,04,03,02,57,14.10
2010,04,03,02,58,16.50
2010,04,03,02,59,17.90
2010,04,03,03,00,16.60
2010,04,03,03,01,17.20
2010,04,03,03,02,14.60
2010,04,03,03,03,28.20
2010,04,03,03,04,20.60
2010,04,03,03,05,19.80
2010,04,03,03,06,19.60
2010,04,03,03,07,18.10
2010,04,03,03,08,23.70
2010,04,03,03,09,16.30
2010,04,03,03,10,21.30
2010,04,03,03,11,24.10
2010,04,03,03,12,24.10
2010,04,03,03,13,20.30
2010,04,03,03,14,21.40
2010,04,03,03,15,19.90
2010,04,03,03,16,23.30
2010,04,03,03,17,29.60
2010,04,03,03,18,14.80
2010,04,03,03,19,15.60
2010,04,03,03,20,14.90
2010,04,03,03,21,20.20
2010,04,03,03,22,13.70
2010,04,03,03,23,19.60
2010,04,03,03,24,16.30
2010,04,03,03,25,12.40
2010,04,03,03,26,10.20
2010,04,03,03,27,9.40
2010,04,03,03,28,18.60
2010,04,03,03,29,5.80
2010,04,03,03,30,7.60
2010,04,03,03,31,6.80
2010,04,03,03,32,7.00
2010,04,03,03,33,7.20
2010,04,03,03,34,8.70
2010,04,03,03,35,6.00
2010,04,03,03,36,10.90
2010,04,03,03,37,14.60
2010,04,03,03,38,17.20
2010,04,03,03,39,16.80
2010,04,03,03,40,15.60
2010,04,03,03,41,24.90
2010,04,03,03,42,16.90
2010,04,03,03,43,23.60
2010,04,03,03,44,19.60
2010,04,03,03,45,16.10
2010,04,03,03,46,16.30
2010,04,03,03,47,18.80
2010,04,03,03,48,20.30
2010,04,03,03,49,17.10
2010,04,03,03,50,19.50
2010,04,03,03,51,20.70
2010,04,03,03,52,37.20
2010,04,03,03,53,32.30
2010,04,03,03,54,28.50
2010,04,03,03,55,26.10
2010,04,03,03,56,21.50
2010,04,03,03,57,21.20
2010,04,03,03,58,20.30
2010,04,03,03,59,15.80
2010,04,03,04,00,25.30
2010,04,03,04,01,18.50
2010,04,03,04,02,12.80
2010,04,03,04,03,21.90
2010,04,03,04,04,23.10
2010,04,03,04,05,21.20
2010,04,03,04,06,18.70
2010,04,03,04,07,17.00
2010,04,03,04,08,12.10
2010,04,03,04,09,17.80
2010,04,03,04,10,22.90
2010,04,03,04,11,18.80
2010,04,03,04,12,14.50
2010,04,03,04,13,11.30
2010,04,03,04,14,13.00
2010,04,03,04,15,10.50
2010,04,03,04,16,14.90
2010,04,03,04,17,11.70
2010,04,03,04,18,14.60
2010,04,03,04,19,13.50
2010,04,03,04,20,16.10
2010,04,03,04,21,13.70
2010,04,03,04,22,12.90
2010,04,03,04,23,18.30
2010,04,03,04,24,19.90
2010,04,03,04,25,10.50
2010,04,03,04,26,16.00
2010,04,03,04,27,27.10
2010,04,03,04,28,21.60
2010,04,03,04,29,16.70
2010,04,03,04,30,17.50
2010,04,03,04,31,14.40
2010,04,03,04,32,16.70
2010,04,03,04,33,23.50
2010,04,03,04,34,23.00
2010,04,03,04,35,26.20
2010,04,03,04,36,17.50
2010,04,03,04,37,18.10
2010,04,03,04,38,18.50
2010,04,03,04,39,18.70
2010,04,03,04,40,20.80
2010,04,03,04,41,20.00
2010,04,03,04,42,21.10
2010,04,03,04,43,20.50
2010,04,03,04,44,28.10
2010,04,03,04,45,15.80
2010,04,03,04,46,13.10
2010,04,03,04,47,23.70
2010,04,03,04,48,25.50
2010,04,03,04,49,18.00
2010,04,03,04,50,24.90
2010,04,03,04,51,16.60
2010,04,03,04,52,10.80
2010,04,03,04,53,14.70
2010,04,03,04,54,14.40
2010,04,03,04,55,16.90
2010,04,03,04,56,11.20
2010,04,03,04,57,17.30
2010,04,03,04,58,11.10
2010,04,03,04,59,14.80
2010,04,03,05,00,13.10
2010,04,03,05,01,12.40
2010,04,03,05,02,19.60
2010,04,03,05,03,21.70
2010,04,03,05,04,15.70
2010,04,03,05,05,19.10
2010,04,03,05,06,21.20
2010,04,03,05,07,20.80
2010,04,03,05,08,16.70
2010,04,03,05,09,13.00
2010,04,03,05,10,24.10
2010,04,03,05,11,14.80
2010,04,03,05,12,21.30
2010,04,03,05,13,19.60
2010,04,03,05,14,19.20
2010,04,03,05,15,22.10
2010,04,03,05,16,18.70
2010,04,03,05,17,20.10
2010,04,03,05,18,17.40
2010,04,03,05,19,15.90
2010,04,03,05,20,18.00
2010,04,03,05,21,13.30
2010,04,03,05,22,13.40
2010,04,03,05,23,11.00
2010,04,03,05,24,12.30
2010,04,03,05,25,20.40
2010,04,03,05,26,13.00
2010,04,03,05,27,10.80
2010,04,03,05,28,14.60
2010,04,03,05,29,15.00
2010,04,03,05,30,10.60
2010,04,03,05,31,8.10
2010,04,03,05,32,12.90
2010,04,03,05,33,22.80
2010,04,03,05,34,12.60
2010,04,03,05,35,16.30
2010,04,03,05,36,13.40
2010,04,03,05,37,14.50
2010,04,03,05,38,14.70
2010,04,03,05,39,14.90
2010,04,03,05,40,14.90
2010,04,03,05,41,18.30
2010,04,03,05,42,15.90
2010,04,03,05,43,13.20
2010,04,03,05,44,12.80
2010,04,03,05,45,7.70
2010,04,03,05,46,14.30
2010,04,03,05,47,7.10
2010,04,03,05,48,14.30
2010,04,03,05,49,11.50
2010,04,03,05,50,8.50
2010,04,03,05,51,12.20
2010,04,03,05,52,7.00
2010,04,03,05,53,4.70
2010,04,03,05,54,5.80
2010,04,03,05,55,4.30
2010,04,03,05,56,8.30
2010,04,03,05,57,7.20
2010,04,03,05,58,5.20
2010,04,03,05,59,7.30
2010,04,03,06,00,7.60
2010,04,03,06,01,9.00
2010,04,03,06,02,8.40
2010,04,03,06,03,9.20
2010,04,03,06,04,11.50
2010,04,03,06,05,7.00
2010,04,03,06,06,4.00
2010,04,03,06,07,5.80
2010,04,03,06,08,7.30
2010,04,03,06,09,10.50
2010,04,03,06,10,14.50
2010,04,03,06,11,18.10
2010,04,03,06,12,8.60
2010,04,03,06,13,8.50
2010,04,03,06,14,12.90
2010,04,03,06,15,11.80
2010,04,03,06,16,15.80
2010,04,03,06,17,14.20
2010,04,03,06,18,12.10
2010,04,03,06,19,8.60
2010,04,03,06,20,13.30
2010,04,03,06,21,9.80
2010,04,03,06,22,14.10
2010,04,03,06,23,14.20
2010,04,03,06,24,18.20
2010,04,03,06,25,18.60
2010,04,03,06,26,14.90
2010,04,03,06,27,12.00
2010,04,03,06,28,18.40
2010,04,03,06,29,16.70
2010,04,03,06,30,17.00
2010,04,03,06,31,13.70
2010,04,03,06,32,12.70
2010,04,03,06,33,17.50
2010,04,03,06,34,13.10
2010,04,03,06,35,13.00
2010,04,03,06,36,20.60
2010,04,03,06,37,16.60
2010,04,03,06,38,18.70
2010,04,03,06,39,23.30
2010,04,03,06,40,18.40
2010,04,03,06,41,9.30
2010,04,03,06,42,13.30
2010,04,03,06,43,10.60
2010,04,03,06,44,11.00
2010,04,03,06,45,14.00
2010,04,03,06,46,15.60
2010,04,03,06,47,18.10
2010,04,03,06,48,11.80
2010,04,03,06,49,12.70
2010,04,03,06,50,14.50
2010,04,03,06,51,13.40
2010,04,03,06,52,8.80
2010,04,03,06,53,7.20
2010,04,03,06,54,12.10
2010,04,03,06,55,9.40
2010,04,03,06,56,12.40
2010,04,03,06,57,7.40
2010,04,03,06,58,7.00
2010,04,03,06,59,11.90
2010,04,03,07,00,12.30
2010,04,03,07,01,10.90
2010,04,03,07,02,16.50
2010,04,03,07,03,9.10
2010,04,03,07,04,2.90
2010,04,03,07,05,7.20
2010,04,03,07,06,11.80
2010,04,03,07,07,8.90
2010,04,03,07,08,16.20
2010,04,03,07,09,6.40
2010,04,03,07,10,11.40
2010,04,03,07,11,9.60
2010,04,03,07,12,10.40
2010,04,03,07,13,8.20
2010,04,03,07,14,7.50
2010,04,03,07,15,4.90
2010,04,03,07,16,12.30
2010,04,03,07,17,10.40
2010,04,03,07,18,7.20
2010,04,03,07,19,13.20
2010,04,03,07,20,9.80
2010,04,03,07,21,10.80
2010,04,03,07,22,12.20
2010,04,03,07,23,9.30
2010,04,03,07,24,10.70
2010,04,03,07,25,11.20
2010,04,03,07,26,6.40
2010,04,03,07,27,9.80
2010,04,03,07,28,5.80
2010,04,03,07,29,6.80
2010,04,03,07,30,7.10
2010,04,03,07,31,6.30
2010,04,03,07,32,9.30
2010,04,03,07,33,9.90
2010,04,03,07,34,16.40
2010,04,03,07,35,9.30
2010,04,03,07,36,12.30
2010,04,03,07,37,15.10
2010,04,03,07,38,13.80
2010,04,03,07,39,14.20
2010,04,03,07,40,14.50
2010,04,03,07,41,17.00
2010,04,03,07,42,4.70
2010,04,03,07,43,9.80
2010,04,03,07,44,9.30
2010,04,03,07,45,9.20
2010,04,03,07,46,8.00
2010,04,03,07,47,8.70
2010,04,03,07,48,8.60
2010,04,03,07,49,8.00
2010,04,03,07,50,10.10
2010,04,03,07,51,12.90
2010,04,03,07,52,14.90
2010,04,03,07,53,15.20
2010,04,03,07,54,19.40
2010,04,03,07,55,10.30
2010,04,03,07,56,16.50
2010,04,03,07,57,16.00
2010,04,03,07,58,11.20
2010,04,03,07,59,11.00
2010,04,03,08,00,20.80
2010,04,03,08,01,14.20
2010,04,03,08,02,28.40
2010,04,03,08,03,27.30
2010,04,03,08,04,15.80
2010,04,03,08,05,21.20
2010,04,03,08,06,21.20
2010,04,03,08,07,21.10
2010,04,03,08,08,21.20
2010,04,03,08,09,26.10
2010,04,03,08,10,25.30
2010,04,03,08,11,14.10
2010,04,03,08,12,15.90
2010,04,03,08,13,10.90
2010,04,03,08,14,14.10
2010,04,03,08,15,14.10
2010,04,03,08,16,19.80
2010,04,03,08,17,17.70
2010,04,03,08,18,16.90
2010,04,03,08,19,14.20
2010,04,03,08,20,15.80
2010,04,03,08,21,13.50
2010,04,03,08,22,10.10
2010,04,03,08,23,6.40
2010,04,03,08,24,6.00
2010,04,03,08,25,10.30
2010,04,03,08,26,7.30
2010,04,03,08,27,5.20
2010,04,03,08,28,4.30
2010,04,03,08,29,6.80
2010,04,03,08,30,4.50
2010,04,03,08,31,6.80
2010,04,03,08,32,2.60
2010,04,03,08,33,3.60
2010,04,03,08,34,1.80
2010,04,03,08,35,5.10
2010,04,03,08,36,6.40
2010,04,03,08,37,6.20
2010,04,03,08,38,4.70
2010,04,03,08,39,5.80
2010,04,03,08,40,11.10
2010,04,03,08,41,8.90
2010,04,03,08,42,8.00
2010,04,03,08,43,9.80
2010,04,03,08,44,11.70
2010,04,03,08,45,7.10
2010,04,03,08,46,13.00
2010,04,03,08,47,6.80
2010,04,03,08,48,5.80
2010,04,03,08,49,13.30
2010,04,03,08,50,10.90
2010,04,03,08,51,17.20
2010,04,03,08,52,13.90
2010,04,03,08,53,12.50
2010,04,03,08,54,20.00
2010,04,03,08,55,13.00
2010,04,03,08,56,13.20
2010,04,03,08,57,9.90
2010,04,03,08,58,7.00
2010,04,03,08,59,5.00
2010,04,03,09,00,13.60
2010,04,03,09,01,13.30
2010,04,03,09,02,11.40
2010,04,03,09,03,9.30
2010,04,03,09,04,4.40
2010,04,03,09,05,5.10
2010,04,03,09,06,8.40
2010,04,03,09,07,8.10
2010,04,03,09,08,13.20
2010,04,03,09,09,14.90
2010,04,03,09,10,12.60
2010,04,03,09,11,5.70
2010,04,03,09,12,8.30
2010,04,03,09,13,8.10
2010,04,03,09,14,9.40
2010,04,03,09,15,7.50
2010,04,03,09,16,10.90
2010,04,03,09,17,10.00
2010,04,03,09,18,14.20
2010,04,03,09,19,11.10
2010,04,03,09,20,11.30
2010,04,03,09,21,14.40
2010,04,03,09,22,8.60
2010,04,03,09,23,9.70
2010,04,03,09,24,15.20
2010,04,03,09,25,14.20
2010,04,03,09,26,6.50
2010,04,03,09,27,6.10
2010,04,03,09,28,20.40
2010,04,03,09,29,11.40
2010,04,03,09,30,9.40
2010,04,03,09,31,9.30
2010,04,03,09,32,13.70
2010,04,03,09,33,13.80
2010,04,03,09,34,9.20
2010,04,03,09,35,11.60
2010,04,03,09,36,7.90
2010,04,03,09,37,12.90
2010,04,03,09,38,12.30
2010,04,03,09,39,13.40
2010,04,03,09,40,23.90
2010,04,03,09,41,15.30
2010,04,03,09,42,15.30
2010,04,03,09,43,14.90
2010,04,03,09,44,13.10
2010,04,03,09,45,6.00
2010,04,03,09,46,14.10
2010,04,03,09,47,7.20
2010,04,03,09,48,14.60
2010,04,03,09,49,6.20
2010,04,03,09,50,5.00
2010,04,03,09,51,4.80
2010,04,03,09,52,10.60
2010,04,03,09,53,8.20
2010,04,03,09,54,14.60
2010,04,03,09,55,8.10
2010,04,03,09,56,15.70
2010,04,03,09,57,18.90
2010,04,03,09,58,13.50
2010,04,03,09,59,21.70
2010,04,03,10,00,8.10
2010,04,03,10,01,21.30
2010,04,03,10,02,20.00
2010,04,03,10,03,8.60
2010,04,03,10,04,11.40
2010,04,03,10,05,14.40
2010,04,03,10,06,15.10
2010,04,03,10,07,11.30
2010,04,03,10,08,18.30
2010,04,03,10,09,17.80
2010,04,03,10,10,11.30
2010,04,03,10,11,18.30
2010,04,03,10,12,14.90
2010,04,03,10,13,14.40
2010,04,03,10,14,11.30
2010,04,03,10,15,10.30
2010,04,03,10,16,15.20
2010,04,03,10,17,9.20
2010,04,03,10,18,11.30
2010,04,03,10,19,20.40
2010,04,03,10,20,14.40
2010,04,03,10,21,15.60
2010,04,03,10,22,14.30
2010,04,03,10,23,14.10
2010,04,03,10,24,12.00
2010,04,03,10,25,19.60
2010,04,03,10,26,17.00
2010,04,03,10,27,19.70
2010,04,03,10,28,19.10
2010,04,03,10,29,12.80
2010,04,03,10,30,10.50
2010,04,03,10,31,10.40
2010,04,03,10,32,12.30
2010,04,03,10,33,19.50
2010,04,03,10,34,11.20
2010,04,03,10,35,14.30
2010,04,03,10,36,19.20
2010,04,03,10,37,17.30
2010,04,03,10,38,10.20
2010,04,03,10,39,7.50
2010,04,03,10,40,10.00
2010,04,03,10,41,9.80
2010,04,03,10,42,7.90
2010,04,03,10,43,8.80
2010,04,03,10,44,7.10
2010,04,03,10,45,7.30
2010,04,03,10,46,7.60
2010,04,03,10,47,10.30
2010,04,03,10,48,9.50
2010,04,03,10,49,6.70
2010,04,03,10,50,5.50
2010,04,03,10,51,10.10
2010,04,03,10,52,7.90
2010,04,03,10,53,5.90
2010,04,03,10,54,2.70
2010,04,03,10,55,4.50
2010,04,03,10,56,9.50
2010,04,03,10,57,8.80
2010,04,03,10,58,12.80
2010,04,03,10,59,12.60
2010,04,03,11,00,10.10
2010,04,03,11,01,8.20
2010,04,03,11,02,6.40
2010,04,03,11,03,6.40
2010,04,03,11,04,4.80
2010,04,03,11,05,5.50
2010,04,03,11,06,5.50
2010,04,03,11,07,3.90
2010,04,03,11,08,7.10
2010,04,03,11,09,3.90
2010,04,03,11,10,8.70
2010,04,03,11,11,8.40
2010,04,03,11,12,11.90
2010,04,03,11,13,8.50
2010,04,03,11,14,7.50
2010,04,03,11,15,3.80
2010,04,03,11,16,1.60
2010,04,03,11,17,2.80
2010,04,03,11,18,2.40
2010,04,03,11,19,1.40
2010,04,03,11,20,3.00
2010,04,03,11,21,6.60
2010,04,03,11,22,4.70
2010,04,03,11,23,3.20
2010,04,03,11,24,5.30
2010,04,03,11,25,9.20
2010,04,03,11,26,11.60
2010,04,03,11,27,1.30
2010,04,03,11,28,2.00
2010,04,03,11,29,1.90
2010,04,03,11,30,1.90
2010,04,03,11,31,0.20
2010,04,03,11,32,0.60
2010,04,03,11,33,2.20
2010,04,03,11,34,0.10
2010,04,03,11,35,0.20
2010,04,03,11,36,0.50
2010,04,03,11,37,2.30
2010,04,03,11,38,1.20
2010,04,03,11,39,4.70
2010,04,03,11,40,2.60
2010,04,03,11,41,3.00
2010,04,03,11,42,1.80
2010,04,03,11,43,3.60
2010,04,03,11,44,4.90
2010,04,03,11,45,1.10
2010,04,03,11,46,3.40
2010,04,03,11,47,5.20
2010,04,03,11,48,6.40
2010,04,03,11,49,5.60
2010,04,03,11,50,3.70
2010,04,03,11,51,5.30
2010,04,03,11,52,3.50
2010,04,03,11,53,2.50
2010,04,03,11,54,2.10
2010,04,03,11,55,2.80
2010,04,03,11,56,1.20
2010,04,03,11,57,4.20
2010,04,03,11,58,0.70
2010,04,03,11,59,0.80
2010,04,03,12,00,1.10
2010,04,03,12,01,2.70
2010,04,03,12,02,8.00
2010,04,03,12,03,6.30
2010,04,03,12,04,5.10
2010,04,03,12,05,6.00
2010,04,03,12,06,4.50
2010,04,03,12,07,2.60
2010,04,03,12,08,2.00
2010,04,03,12,09,4.40
2010,04,03,12,10,6.10
2010,04,03,12,11,4.10
2010,04,03,12,12,0.90
2010,04,03,12,13,1.60
2010,04,03,12,14,3.90
2010,04,03,12,15,5.00
2010,04,03,12,16,1.70
2010,04,03,12,17,1.80
2010,04,03,12,18,1.70
2010,04,03,12,19,1.80
2010,04,03,12,20,1.40
2010,04,03,12,21,7.30
2010,04,03,12,22,5.80
2010,04,03,12,23,6.80
2010,04,03,12,24,8.90
2010,04,03,12,25,7.40
2010,04,03,12,26,7.30
2010,04,03,12,27,2.00
2010,04,03,12,28,3.00
2010,04,03,12,29,2.60
2010,04,03,12,30,1.90
2010,04,03,12,31,2.30
2010,04,03,12,32,2.90
2010,04,03,12,33,4.90
2010,04,03,12,34,1.20
2010,04,03,12,35,4.30
2010,04,03,12,36,2.30
2010,04,03,12,37,8.40
2010,04,03,12,38,6.40
2010,04,03,12,39,4.30
2010,04,03,12,40,5.70
2010,04,03,12,41,6.70
2010,04,03,12,42,4.20
2010,04,03,12,43,7.30
2010,04,03,12,44,12.80
2010,04,03,12,45,9.70
2010,04,03,12,46,3.30
2010,04,03,12,47,4.90
2010,04,03,12,48,3.40
2010,04,03,12,49,1.60
2010,04,03,12,50,5.90
2010,04,03,12,51,6.70
2010,04,03,12,52,3.50
2010,04,03,12,53,4.80
2010,04,03,12,54,5.30
2010,04,03,12,55,6.30
2010,04,03,12,56,6.10
2010,04,03,12,57,2.60
2010,04,03,12,58,5.50
2010,04,03,12,59,2.40
2010,04,03,13,00,6.00
2010,04,03,13,01,6.30
2010,04,03,13,02,6.60
2010,04,03,13,03,5.10
2010,04,03,13,04,5.20
2010,04,03,13,05,1.40
2010,04,03,13,06,3.30
2010,04,03,13,07,7.00
2010,04,03,13,08,10.80
2010,04,03,13,09,7.00
2010,04,03,13,10,8.30
2010,04,03,13,11,5.80
2010,04,03,13,12,5.00
2010,04,03,13,13,4.70
2010,04,03,13,14,5.30
2010,04,03,13,15,10.10
2010,04,03,13,16,6.40
2010,04,03,13,17,9.70
2010,04,03,13,18,7.10
2010,04,03,13,19,3.00
2010,04,03,13,20,5.00
2010,04,03,13,21,2.00
2010,04,03,13,22,9.80
2010,04,03,13,23,7.90
2010,04,03,13,24,5.20
2010,04,03,13,25,5.40
2010,04,03,13,26,6.50
2010,04,03,13,27,3.40
2010,04,03,13,28,10.10
2010,04,03,13,29,9.60
2010,04,03,13,30,12.50
2010,04,03,13,31,7.90
2010,04,03,13,32,12.40
2010,04,03,13,33,7.30
2010,04,03,13,34,14.20
2010,04,03,13,35,14.10
2010,04,03,13,36,14.10
2010,04,03,13,37,9.50
2010,04,03,13,38,7.50
2010,04,03,13,39,3.20
2010,04,03,13,40,10.50
2010,04,03,13,41,6.60
2010,04,03,13,42,6.10
2010,04,03,13,43,7.70
2010,04,03,13,44,7.10
2010,04,03,13,45,7.60
2010,04,03,13,46,6.20
2010,04,03,13,47,11.30
2010,04,03,13,48,16.30
2010,04,03,13,49,16.10
2010,04,03,13,50,11.90
2010,04,03,13,51,8.40
2010,04,03,13,52,6.70
2010,04,03,13,53,10.30
2010,04,03,13,54,5.50
2010,04,03,13,55,12.50
2010,04,03,13,56,9.10
2010,04,03,13,57,9.90
2010,04,03,13,58,17.20
2010,04,03,13,59,12.30
2010,04,03,14,00,7.20
2010,04,03,14,01,6.30
2010,04,03,14,02,8.40
2010,04,03,14,03,15.60
2010,04,03,14,04,9.20
2010,04,03,14,05,8.10
2010,04,03,14,06,8.00
2010,04,03,14,07,14.20
2010,04,03,14,08,9.30
2010,04,03,14,09,12.20
2010,04,03,14,10,7.40
2010,04,03,14,11,15.50
2010,04,03,14,12,9.60
2010,04,03,14,13,5.60
2010,04,03,14,14,9.70
2010,04,03,14,15,5.70
2010,04,03,14,16,7.30
2010,04,03,14,17,8.60
2010,04,03,14,18,4.80
2010,04,03,14,19,4.30
2010,04,03,14,20,3.70
2010,04,03,14,21,6.20
2010,04,03,14,22,7.00
2010,04,03,14,23,12.50
2010,04,03,14,24,16.10
2010,04,03,14,25,11.40
2010,04,03,14,26,9.70
2010,04,03,14,27,8.20
2010,04,03,14,28,6.70
2010,04,03,14,29,13.20
2010,04,03,14,30,15.00
2010,04,03,14,31,13.30
2010,04,03,14,32,11.50
2010,04,03,14,33,8.10
2010,04,03,14,34,5.10
2010,04,03,14,35,5.70
2010,04,03,14,36,5.50
2010,04,03,14,37,9.20
2010,04,03,14,38,7.10
2010,04,03,14,39,6.90
2010,04,03,14,40,7.70
2010,04,03,14,41,7.60
2010,04,03,14,42,6.00
2010,04,03,14,43,11.70
2010,04,03,14,44,17.50
2010,04,03,14,45,10.50
2010,04,03,14,46,6.50
2010,04,03,14,47,4.20
2010,04,03,14,48,8.90
2010,04,03,14,49,9.60
2010,04,03,14,50,2.50
2010,04,03,14,51,8.30
2010,04,03,14,52,7.10
2010,04,03,14,53,8.00
2010,04,03,14,54,10.20
2010,04,03,14,55,10.10
2010,04,03,14,56,3.70
2010,04,03,14,57,5.40
2010,04,03,14,58,7.60
2010,04,03,14,59,8.50
2010,04,03,15,00,9.70
2010,04,03,15,01,6.80
2010,04,03,15,02,12.10
2010,04,03,15,03,10.60
2010,04,03,15,04,13.10
2010,04,03,15,05,8.30
2010,04,03,15,06,9.40
2010,04,03,15,07,10.60
2010,04,03,15,08,11.70
2010,04,03,15,09,12.60
2010,04,03,15,10,10.70
2010,04,03,15,11,12.20
2010,04,03,15,12,10.10
2010,04,03,15,13,8.00
2010,04,03,15,14,13.00
2010,04,03,15,15,7.80
2010,04,03,15,16,5.70
2010,04,03,15,17,11.10
2010,04,03,15,18,11.10
2010,04,03,15,19,8.90
2010,04,03,15,20,9.70
2010,04,03,15,21,7.00
2010,04,03,15,22,9.40
2010,04,03,15,23,9.00
2010,04,03,15,24,4.70
2010,04,03,15,25,9.70
2010,04,03,15,26,6.30
2010,04,03,15,27,10.30
2010,04,03,15,28,4.70
2010,04,03,15,29,7.50
2010,04,03,15,30,11.20
2010,04,03,15,31,14.70
2010,04,03,15,32,14.80
2010,04,03,15,33,12.20
2010,04,03,15,34,8.60
2010,04,03,15,35,9.60
2010,04,03,15,36,11.80
2010,04,03,15,37,8.40
2010,04,03,15,38,16.40
2010,04,03,15,39,16.80
2010,04,03,15,40,13.00
2010,04,03,15,41,11.40
2010,04,03,15,42,11.10
2010,04,03,15,43,6.40
2010,04,03,15,44,10.10
2010,04,03,15,45,8.40
2010,04,03,15,46,5.90
2010,04,03,15,47,5.50
2010,04,03,15,48,15.80
2010,04,03,15,49,5.60
2010,04,03,15,50,8.90
2010,04,03,15,51,15.60
2010,04,03,15,52,15.00
2010,04,03,15,53,13.00
2010,04,03,15,54,14.10
2010,04,03,15,55,7.20
2010,04,03,15,56,4.00
2010,04,03,15,57,4.50
2010,04,03,15,58,5.30
2010,04,03,15,59,7.90
2010,04,03,16,00,11.20
2010,04,03,16,01,15.50
2010,04,03,16,02,10.90
2010,04,03,16,03,14.40
2010,04,03,16,04,10.30
2010,04,03,16,05,9.80
2010,04,03,16,06,6.80
2010,04,03,16,07,7.80
2010,04,03,16,08,8.10
2010,04,03,16,09,8.40
2010,04,03,16,10,8.00
2010,04,03,16,11,15.90
2010,04,03,16,12,12.30
2010,04,03,16,13,13.20
2010,04,03,16,14,10.60
2010,04,03,16,15,8.60
2010,04,03,16,16,7.20
2010,04,03,16,17,9.70
2010,04,03,16,18,12.40
2010,04,03,16,19,10.90
2010,04,03,16,20,13.30
2010,04,03,16,21,7.20
2010,04,03,16,22,7.40
2010,04,03,16,23,4.10
2010,04,03,16,24,7.40
2010,04,03,16,25,6.70
2010,04,03,16,26,7.00
2010,04,03,16,27,11.60
2010,04,03,16,28,6.70
2010,04,03,16,29,4.40
2010,04,03,16,30,4.20
2010,04,03,16,31,4.70
2010,04,03,16,32,10.30
2010,04,03,16,33,6.90
2010,04,03,16,34,10.20
2010,04,03,16,35,6.90
2010,04,03,16,36,5.90
2010,04,03,16,37,4.60
2010,04,03,16,38,6.00
2010,04,03,16,39,5.70
2010,04,03,16,40,11.50
2010,04,03,16,41,5.20
2010,04,03,16,42,8.70
2010,04,03,16,43,9.20
2010,04,03,16,44,11.20
2010,04,03,16,45,5.50
2010,04,03,16,46,1.70
2010,04,03,16,47,7.10
2010,04,03,16,48,1.20
2010,04,03,16,49,6.40
2010,04,03,16,50,5.70
2010,04,03,16,51,7.20
2010,04,03,16,52,14.60
2010,04,03,16,53,13.80
2010,04,03,16,54,6.40
2010,04,03,16,55,4.70
2010,04,03,16,56,4.80
2010,04,03,16,57,1.30
2010,04,03,16,58,3.40
2010,04,03,16,59,3.50
2010,04,03,17,00,5.20
2010,04,03,17,01,5.10
2010,04,03,17,02,11.50
2010,04,03,17,03,5.30
2010,04,03,17,04,4.30
2010,04,03,17,05,7.10
2010,04,03,17,06,2.60
2010,04,03,17,07,8.70
2010,04,03,17,08,5.80
2010,04,03,17,09,5.60
2010,04,03,17,10,8.70
2010,04,03,17,11,6.40
2010,04,03,17,12,6.00
2010,04,03,17,13,6.00
2010,04,03,17,14,6.40
2010,04,03,17,15,7.30
2010,04,03,17,16,9.50
2010,04,03,17,17,5.70
2010,04,03,17,18,5.90
2010,04,03,17,19,4.40
2010,04,03,17,20,4.40
2010,04,03,17,21,4.40
2010,04,03,17,22,6.50
2010,04,03,17,23,9.10
2010,04,03,17,24,7.60
2010,04,03,17,25,3.80
2010,04,03,17,26,9.40
2010,04,03,17,27,7.00
2010,04,03,17,28,6.20
2010,04,03,17,29,3.80
2010,04,03,17,30,8.80
2010,04,03,17,31,4.60
2010,04,03,17,32,6.90
2010,04,03,17,33,8.30
2010,04,03,17,34,6.80
2010,04,03,17,35,5.40
2010,04,03,17,36,3.60
2010,04,03,17,37,3.70
2010,04,03,17,38,6.70
2010,04,03,17,39,3.40